Location: Gad�tanya
(48.0500°N, 20.8500°E)
Time: 08:03:20
(UTC+00:00)

Cosmos 1869 - Pass Details

Date: 05 July 2020
Orbit: 520 x 563 km, 82.5° (Epoch: 05 August)

Event Time Altitude Azimuth Distance (km) Brightness Sun altitude
Rises 20:25:12 0° 354° (N) 2,699 8.1 -13.0°
Reaches altitude 10° 20:27:24 10° 359° (N) 1,810 6.9 -13.2°
Maximum altitude 20:31:18 54° 77° (ENE) 669 3.6 -13.5°
Enters shadow 20:33:34 23° 147° (SSE) 1,183 4.4 -13.7°
